Location: Riverton
(43.0250°N, 108.3790°W)
Time: 09:15:59
(UTC-06:00)

JAS-2 - Visible Passes

Search period start: 29 September 2016 00:00
Search period end: 09 October 2016 00:00
Orbit: 801 x 1321 km, 98.6° (Epoch: 28 September)

Date Brightness Start Highest point End Pass type
(mag) Time Alt. Az. Time Alt. Az. Time Alt. Az.
29 Sep 11.7 01:24:23 10° NNE 01:27:31 27° NNE 01:27:31 27° NNE visible
29 Sep 11.8 03:10:41 10° N 03:13:59 19° NNW 03:13:59 19° NNW visible
30 Sep 12.1 00:29:46 10° NNE 00:31:42 18° NNE 00:31:42 18° NNE visible
30 Sep 11.6 02:14:46 10° N 02:18:11 27° NNW 02:18:11 27° NNW visible
30 Sep 12.2 04:04:09 10° NW 04:04:39 10° NW 04:04:39 10° NW visible
01 Oct 11.8 01:19:32 10° NNE 01:22:22 25° NNE 01:22:22 25° NNE visible
01 Oct 11.8 03:05:44 10° N 03:08:50 19° NNW 03:08:50 19° NNW visible
02 Oct 12.2 00:25:00 10° NNE 00:26:32 16° NNE 00:26:32 16° NNE visible
02 Oct 11.7 02:09:53 10° N 02:13:01 25° N 02:13:01 25° N visible
02 Oct 12.2 03:58:37 10° NNW 03:59:29 11° NW 03:59:29 11° NW visible
03 Oct 11.9 01:14:42 10° NNE 01:17:12 23° NNE 01:17:12 23° NNE visible
03 Oct 11.9 03:00:48 10° N 03:03:40 19° NNW 03:03:40 19° NNW visible
04 Oct 12.3 00:20:14 10° NNE 00:21:21 14° NNE 00:21:21 14° NNE visible
04 Oct 11.8 02:05:01 10° N 02:07:51 24° N 02:07:51 24° N visible
04 Oct 12.2 03:53:20 10° NNW 03:54:19 11° NW 03:54:19 11° NW visible
05 Oct 12.0 01:09:53 10° NNE 01:12:01 20° NNE 01:12:01 20° NNE visible
05 Oct 11.9 02:55:53 10° N 02:58:30 19° NNW 02:58:30 19° NNW visible
06 Oct 12.3 00:15:29 10° NNE 00:16:11 13° NNE 00:16:11 13° NNE visible
06 Oct 11.9 02:00:09 10° N 02:02:40 22° N 02:02:40 22° N visible
06 Oct 12.2 03:48:10 10° NNW 03:49:08 11° NNW 03:49:08 11° NNW visible
07 Oct 12.1 01:05:04 10° NNE 01:06:50 18° NNE 01:06:50 18° NNE visible
07 Oct 12.0 02:50:59 10° N 02:53:19 18° NNW 02:53:19 18° NNW visible
08 Oct 12.4 00:10:45 10° NNE 00:11:00 11° NNE 00:11:00 11° NNE visible
08 Oct 12.0 01:55:17 10° N 01:57:29 20° N 01:57:29 20° N visible
08 Oct 12.2 03:43:05 10° NNW 03:43:57 11° NNW 03:43:57 11° NNW visible
